Perry, FL

9:56 AM EDT on April 29, 2017 (GMT -0400)
Perry

Weather History for K40J - August, 2013

Change the Weather History Date:

Thursday, August 22, 2013

  Actual Average (KVLD) Record (KVLD)
Temperature  
Mean Temperature 76 °F -  
Max Temperature 84 °F 89 °F 100 °F (2005)
Min Temperature 69 °F 69 °F 64 °F (1997)
Cooling Degree Days 10    
Growing Degree Days 26 (Base 50)    
Moisture  
Dew Point 72 °F    
Average Humidity 93    
Maximum Humidity 100    
Minimum Humidity 79    
Precipitation  
Precipitation 1.61 in - - ()
Sea Level Pressure  
Sea Level Pressure 30.10 in    
Wind  
Wind Speed 2 mph (NE)    
Max Wind Speed 17 mph    
Max Gust Speed 32 mph    
Visibility 7 miles    
Events Rain , Thunderstorm    
Averages and records for this station are not official NWS values.
T = Trace of Precipitation, MM = Missing Value Source: NWS Daily Summary

Daily Weather History Graph

Daily Weather History Graph

Search for Another Location

Airport or City:

Trip Planner

Search our weather history database for the weather conditions in past years. The results will help you decide how hot, cold, wet, or windy it might be!

Date:

Astronomy

Aug. 22, 2013 Rise Set
Actual Time 7:05 AM EDT 8:07 PM EDT
Civil Twilight 6:41 AM EDT 8:32 PM EDT
Nautical Twilight 6:11 AM EDT 9:01 PM EDT
Astronomical Twilight 5:41 AM EDT 9:32 PM EDT
Moon 9:05 PM EDT (8/22) 8:41 AM EDT (8/22)
Length of Visible Light 13h 51m
Length of Day
13h 02m
Waning Gibbous, 97% of the Moon is Illuminated
Aug 22
Waning Gibbous
Aug 28
Last Quarter
Sep 5
New
Sep 12
First Quarter
Sep 19
Full

Hourly Weather History & Observations

Time (EDT) Temp. Heat Index Dew Point Humidity Pressure Visibility Wind Dir Wind Speed Gust Speed Precip Events Conditions
12:15 AM 73.4 °F - 71.6 °F 94% 30.13 in 7.0 mi Calm Calm - N/A   Clear
12:35 AM 73.4 °F - 71.6 °F 94% 30.13 in 10.0 mi Calm Calm - N/A   Clear
12:53 AM 75.0 °F - 72.0 °F 90% 30.12 in - Calm Calm - N/A   Unknown
12:55 AM 73.4 °F - 71.6 °F 94% 30.13 in 10.0 mi Calm Calm - N/A   Clear
1:15 AM 73.4 °F - 71.6 °F 94% 30.13 in 10.0 mi Calm Calm - N/A   Clear
1:35 AM 73.4 °F - 71.6 °F 94% 30.12 in 10.0 mi ENE 3.5 mph - N/A   Clear
1:53 AM 75.0 °F - 72.0 °F 90% 30.11 in - Calm Calm - N/A   Unknown
1:55 AM 73.4 °F - 71.6 °F 94% 30.12 in 10.0 mi Calm Calm - N/A   Clear
2:15 AM 73.4 °F - 71.6 °F 94% 30.12 in 10.0 mi NE 3.5 mph - N/A   Clear
2:35 AM 73.4 °F - 71.6 °F 94% 30.11 in 7.0 mi Calm Calm - N/A   Clear
2:53 AM 75.0 °F - 72.0 °F 90% 30.09 in - Calm Calm - N/A   Unknown
2:55 AM 73.4 °F - 71.6 °F 94% 30.10 in 7.0 mi Calm Calm - N/A   Clear
3:15 AM 73.4 °F - 71.6 °F 94% 30.10 in 7.0 mi NE 3.5 mph - N/A   Clear
3:35 AM 73.4 °F - 71.6 °F 94% 30.09 in 7.0 mi NE 3.5 mph - N/A   Clear
3:53 AM 75.9 °F - 73.0 °F 91% 30.07 in - Calm Calm - N/A   Unknown
3:55 AM 73.4 °F - 71.6 °F 94% 30.09 in 7.0 mi ENE 3.5 mph - N/A   Clear
4:15 AM 73.4 °F - 71.6 °F 94% 30.08 in 7.0 mi Calm Calm - N/A   Clear
4:35 AM 73.4 °F - 71.6 °F 94% 30.08 in 5.0 mi NE 3.5 mph - N/A   Clear
4:53 AM 75.0 °F - 73.0 °F 94% 30.07 in - Calm Calm - N/A   Unknown
4:55 AM 73.4 °F - 71.6 °F 94% 30.09 in 5.0 mi Calm Calm - N/A   Scattered Clouds
5:15 AM 73.4 °F - 71.6 °F 94% 30.09 in 5.0 mi Calm Calm - N/A   Mostly Cloudy
5:53 AM 75.0 °F - 73.0 °F 94% 30.07 in - NE 3.5 mph - N/A   Unknown
5:55 AM 73.4 °F - 71.6 °F 94% 30.09 in 0.8 mi NE 3.5 mph - N/A   Overcast
6:15 AM 73.4 °F - 71.6 °F 94% 30.08 in 0.8 mi ENE 3.5 mph - N/A   Overcast
6:53 AM 75.9 °F - 73.9 °F 94% 30.07 in - NNE 4.6 mph - N/A   Unknown
6:55 AM 73.4 °F - 71.6 °F 94% 30.09 in 2.0 mi NE 3.5 mph - N/A   Overcast
7:15 AM 73.4 °F - 73.4 °F 100% 30.09 in 2.5 mi NE 4.6 mph - N/A   Overcast
7:35 AM 73.4 °F - 73.4 °F 100% 30.10 in 3.0 mi ENE 4.6 mph - N/A   Overcast
7:53 AM 77.0 °F - 73.9 °F 90% 30.09 in - Variable 3.5 mph - N/A   Unknown
7:55 AM 75.2 °F - 73.4 °F 94% 30.10 in 2.5 mi Calm Calm - N/A   Overcast
8:15 AM 75.2 °F - 73.4 °F 94% 30.11 in 3.0 mi ENE 4.6 mph - N/A   Overcast
8:35 AM 75.2 °F - 73.4 °F 94% 30.12 in 4.0 mi ENE 3.5 mph - N/A   Overcast
8:53 AM 78.1 °F - 75.0 °F 90% 30.10 in - Variable 4.6 mph - N/A   Unknown
8:55 AM 77.0 °F - 73.4 °F 89% 30.12 in 4.0 mi ENE 4.6 mph - N/A   Overcast
9:15 AM 77.0 °F - 75.2 °F 94% 30.12 in 5.0 mi ENE 3.5 mph - N/A   Overcast
9:35 AM 77.0 °F - 75.2 °F 94% 30.13 in 5.0 mi East 5.8 mph - N/A Thunderstorm Overcast
9:53 AM 81.0 °F 87.9 °F 77.0 °F 88% 30.11 in - East 3.5 mph - N/A   Unknown
9:55 AM 78.8 °F - 77.0 °F 94% 30.13 in 7.0 mi East 5.8 mph - N/A Thunderstorm Overcast
10:15 AM 78.8 °F - 77.0 °F 94% 30.15 in 10.0 mi ESE 6.9 mph - N/A   Overcast
10:35 AM 78.8 °F - 77.0 °F 94% 30.15 in 10.0 mi ESE 4.6 mph - N/A Thunderstorm Mostly Cloudy
10:53 AM 82.9 °F 90.8 °F 75.9 °F 79% 30.12 in - Variable 4.6 mph - N/A   Unknown
10:55 AM 80.6 °F 87.1 °F 77.0 °F 89% 30.13 in 10.0 mi ESE 5.8 mph - N/A   Scattered Clouds
11:15 AM 82.4 °F 90.9 °F 77.0 °F 84% 30.12 in 10.0 mi NE 4.6 mph - N/A Thunderstorm Scattered Clouds
11:35 AM 75.2 °F - 69.8 °F 83% 30.15 in 4.0 mi WSW 17.3 mph 32.2 mph N/A Rain , Thunderstorm Thunderstorms and Rain
11:53 AM 73.0 °F - 70.0 °F 90% 30.13 in - WSW 10.4 mph 20.7 mph 0.16 in   Unknown
11:55 AM 71.6 °F - 68.0 °F 88% 30.15 in 1.2 mi West 9.2 mph 18.4 mph 0.21 in Rain , Thunderstorm Heavy Thunderstorms and Rain
12:15 PM 71.6 °F - 69.8 °F 94% 30.15 in 3.0 mi West 6.9 mph - 0.13 in Rain , Thunderstorm Heavy Thunderstorms and Rain
12:35 PM 71.6 °F - 69.8 °F 94% 30.16 in 3.0 mi NW 5.8 mph - 0.23 in Rain , Thunderstorm Heavy Thunderstorms and Rain
12:53 PM 72.0 °F - 69.1 °F 91% 30.15 in - North 10.4 mph - 0.61 in   Unknown
12:55 PM 71.6 °F - 68.0 °F 88% 30.16 in 1.8 mi North 11.5 mph - 0.53 in Rain , Thunderstorm Heavy Thunderstorms and Rain
1:15 PM 69.8 °F - 69.8 °F 100% 30.15 in 7.0 mi NNW 8.1 mph - 0.07 in Rain , Thunderstorm Rain
1:35 PM 71.6 °F - 69.8 °F 94% 30.15 in 5.0 mi NW 4.6 mph - 0.09 in Rain , Thunderstorm Rain
1:53 PM 73.0 °F - 70.0 °F 90% 30.13 in - NNW 4.6 mph - 0.29 in   Unknown
1:55 PM 71.6 °F - 69.8 °F 94% 30.14 in 5.0 mi North 3.5 mph - 0.15 in Rain Heavy Rain
2:35 PM 71.6 °F - 69.8 °F 94% 30.13 in 4.0 mi Calm Calm - 0.08 in Rain , Thunderstorm Rain
2:53 PM 73.0 °F - 70.0 °F 90% 30.12 in - NE 4.6 mph - 0.18 in   Unknown
2:55 PM 71.6 °F - 69.8 °F 94% 30.13 in 3.0 mi ENE 4.6 mph - 0.15 in Rain , Thunderstorm Heavy Thunderstorms and Rain
3:35 PM 71.6 °F - 69.8 °F 94% 30.10 in 3.0 mi ENE 4.6 mph - 0.16 in Rain , Thunderstorm Heavy Thunderstorms and Rain
3:53 PM 73.0 °F - 70.0 °F 90% 30.08 in - NE 3.5 mph - 0.26 in   Unknown
3:55 PM 71.6 °F - 69.8 °F 94% 30.09 in 5.0 mi ENE 4.6 mph - 0.21 in Rain Rain
4:35 PM 71.6 °F - 69.8 °F 94% 30.08 in 10.0 mi NE 3.5 mph - 0.04 in Rain Light Rain
4:53 PM 73.0 °F - 71.1 °F 93% 30.06 in - Calm Calm - 0.06 in   Unknown
4:55 PM 71.6 °F - 69.8 °F 94% 30.08 in 10.0 mi East 3.5 mph - 0.05 in Rain Light Rain
5:35 PM 71.6 °F - 69.8 °F 94% 30.07 in 10.0 mi East 4.6 mph - N/A Rain Light Rain
5:53 PM 73.9 °F - 71.1 °F 91% 30.04 in - Variable 3.5 mph - N/A   Unknown
5:55 PM 71.6 °F - 69.8 °F 94% 30.05 in 10.0 mi East 5.8 mph - N/A   Scattered Clouds
6:35 PM 71.6 °F - 71.6 °F 100% 30.05 in 10.0 mi Calm Calm - N/A   Clear
6:53 PM 75.9 °F - 72.0 °F 87% 30.03 in - Calm Calm - N/A   Unknown
6:55 PM 73.4 °F - 71.6 °F 94% 30.05 in 10.0 mi Calm Calm - N/A   Clear
7:35 PM 73.4 °F - 71.6 °F 94% 30.03 in 10.0 mi Calm Calm - N/A   Clear
7:53 PM 75.0 °F - 71.1 °F 87% 30.03 in - Calm Calm - N/A   Unknown
7:55 PM 73.4 °F - 71.6 °F 94% 30.04 in 10.0 mi Calm Calm - N/A   Clear
8:15 PM 71.6 °F - 71.6 °F 100% 30.05 in 10.0 mi Calm Calm - N/A   Clear
8:35 PM 71.6 °F - 69.8 °F 94% 30.05 in 10.0 mi Calm Calm - N/A   Clear
8:53 PM 73.9 °F - 71.1 °F 91% 30.04 in - Calm Calm - N/A   Unknown
8:55 PM 71.6 °F - 69.8 °F 94% 30.05 in 10.0 mi Calm Calm - N/A   Clear
9:15 PM 71.6 °F - 69.8 °F 94% 30.05 in 10.0 mi NNE 3.5 mph - N/A   Clear
9:35 PM 71.6 °F - 69.8 °F 94% 30.06 in 10.0 mi NNE 3.5 mph - N/A   Clear
9:53 PM 73.0 °F - 71.1 °F 93% 30.05 in - North 3.5 mph - N/A   Unknown
9:55 PM 71.6 °F - 69.8 °F 94% 30.06 in 10.0 mi NNE 3.5 mph - N/A   Clear
10:15 PM 71.6 °F - 69.8 °F 94% 30.06 in 10.0 mi NE 3.5 mph - N/A   Clear
10:35 PM 71.6 °F - 69.8 °F 94% 30.06 in 10.0 mi Calm Calm - N/A   Clear
10:53 PM 73.0 °F - 70.0 °F 90% 30.05 in - Calm Calm - N/A   Unknown
11:15 PM 71.6 °F - 69.8 °F 94% 30.07 in 10.0 mi Calm Calm - N/A   Clear
11:35 PM 71.6 °F - 69.8 °F 94% 30.07 in 10.0 mi Calm Calm - N/A   Clear
11:53 PM 72.0 °F - 70.0 °F 93% 30.05 in - Calm Calm - N/A   Unknown